Preview of NWS' New Version of Forecast
This preview is not operational and should not be used for support decisions.
Latest weather observations around

Rome, R. B. Russell Airport (KRMG)

Using English Units (Switch to International System of Units)
Date/ Time (EDT) Wind (mph) Vis. (mi) Weather Sky Cond. Temp (°F) Rel. Humidity Wind Chill (°F) Heat Index (°F) Pressure Precip. (in)
Air Dwpt 6 hour Altimeter (inHg) Sea level (inHg) 1 hr 3 hr 6 hr
Max Min
Sep 21 21:53 Calm 10 Clear CLR 70 57     63%     30.21 30.18      
Sep 21 20:53 Calm 10 Clear CLR 73 56     55%   73 30.19 30.16      
Sep 21 19:53 Calm 10 Clear CLR 79 55     44%   79 30.18 30.16      
Sep 21 18:53 SE 6 10 Clear CLR 86 52     31%   84 30.17 30.14      
Sep 21 17:53 S 7 10 Clear CLR 89 52     28%   87 30.17 30.14      
Sep 21 16:53 7 10 Clear CLR 90 52     27%   87 30.18 30.15      
Sep 21 15:53 3 10 Clear CLR 89 53     29%   87 30.2 30.18      
Sep 21 14:53 SE 9 10 Clear CLR 89 55     32%   87 30.23 30.2      
Sep 21 13:53 Calm 10 Mostly Clear FEW060 85 57     39%   84 30.26 30.24      
Sep 21 12:53 Calm 10 Mostly Clear FEW055 83 59     44%   83 30.29 30.26      
Sep 21 11:53 SSW 3 10 Clear CLR 81 62     53%   82 30.31 30.28      
Sep 21 10:53 Calm 10 Clear CLR 77 61     58%   77 30.33 30.3      
Sep 21 09:53 Calm 10 Clear CLR 72 58     61%   72 30.34 30.31      
Sep 21 08:53 Calm 10 Clear CLR 64 57     78%     30.33 30.31      
Sep 21 07:53 Calm 10 Clear CLR 57 54     89%     30.32 30.3      
Sep 21 06:53 Calm 10 Clear CLR 56 53     90%     30.31 30.29      
Sep 21 05:53 Calm 10 Clear CLR 56 53     90%     30.28 30.26      
Sep 21 04:53 Calm 10 Clear CLR 57 54     89%     30.27 30.24      
Sep 21 03:53 Calm 10 Clear CLR 57 54     89%     30.27 30.24      
Sep 21 02:53 Calm 10 Clear CLR 59 55     87%     30.27 30.24      
Sep 21 01:53 Calm 10 Clear CLR 61 56     83%     30.27 30.24      
Sep 21 00:53 Calm 10 Clear CLR 62 56     80%     30.27 30.24      
Sep 20 23:53 Calm 10 Clear CLR 64 57     78%     30.26 30.24      
Sep 20 22:53 Calm 10 Clear CLR 66 58     75%     30.25 30.23      
Sep 20 21:53 Calm 10 Clear CLR 69 57     65%     30.24 30.22      
Sep 20 20:53 Calm 10 Clear CLR 74 57     56%   74 30.22 30.2      
Sep 20 19:53 ESE 3 10 Clear   78 56     47%   78 30.21 30.19      
Sep 20 18:53 SE 6 10 Clear CLR 83 55     38%   82 30.2 30.18      
Sep 20 17:53 SSE 7 10 Clear   85 55     36%   84 30.2 30.17      
Sep 20 16:53 SE 6 10 Clear CLR 85 55     36%   84 30.2 30.17      
Sep 20 15:53 SSW 5 10 Clear CLR 84 54     36%   83 30.21 30.18      
Sep 20 14:53   10 Clear CLR 83 54     37%   82 30.23 30.2      
Sep 20 13:53 SE 7 10 Clear CLR 82 54     38%   81 30.26 30.23      
Sep 20 12:53 ESE 7 10 Clear CLR 79 52     39%   78 30.29 30.26      
Sep 20 11:53   10 Clear CLR 77 52     42%   76 30.31 30.28      
Sep 20 10:53 SE 7 10 Mostly Clear FEW085 74 53     48%   73 30.32 30.29      
Sep 20 09:53 SSE 6 10 Clear CLR 71 55     57%   71 30.31 30.29      
Sep 20 08:53 Calm 10 Mostly Clear FEW080 68 55     63%     30.3 30.28      
Sep 20 07:53 Calm 10 Mostly Cloudy BKN070 63 56     78%     30.29 30.26      
Sep 20 06:53 Calm 10 Clear CLR 62 55     78%     30.26 30.24      
Sep 20 05:53 E 3 10 Mostly Cloudy BKN080 63 55     75%     30.25 30.22      
Sep 20 04:53 E 3 10 Mostly Cloudy BKN070 67 55     66%     30.23 30.2      
Sep 20 03:53 E 7 10 Partly Cloudy SCT065 68 55     63%     30.23 30.19      
Sep 20 02:53 E 6 10 Clear CLR 68 56     65%     30.23 30.2      
Sep 20 01:53 E 3 10 Clear CLR 69 56     63%     30.23 30.2      
Sep 20 00:53 Calm 10 Clear CLR 70 55     59%     30.22 30.19      
Sep 19 23:53 ESE 5 10 Cloudy OVC080 73 55     53%   73 30.21 30.18      
Sep 19 22:53 E 5 10 Partly Cloudy SCT080 73 56     55%   73 30.2 30.17      
Sep 19 21:53 E 6 10 Partly Cloudy SCT075 74 56     53%   74 30.18 30.15      
Sep 19 20:53 ESE 7 10 Clear CLR 76 57     52%   76 30.16 30.13      
Sep 19 19:53 ESE 6 10 Clear CLR 78 57     48%   78 30.13 30.11      
Sep 19 18:53 ESE 7 10 Clear CLR 82 57     43%   82 30.13 30.1      
Sep 19 17:53 SE 9 10 Clear CLR 84 57     40%   83 30.13 30.1      
Sep 19 16:53 SE 9 10 Clear CLR 85 57     39%   84 30.13 30.1      
Sep 19 15:53 ESE 11 10 Clear CLR 86 57     37%   85 30.14 30.11      
Sep 19 14:53 E 7 10 Clear CLR 84 57     40%   83 30.16 30.13      
Sep 19 13:53 E 11 10 Clear CLR 84 58     41%   83 30.17 30.14      
Sep 19 12:53 S 9 10 Mostly Clear FEW045 84 59     43%   84 30.18 30.15      
Sep 19 11:53 ESE 13 10 Clear CLR 80 59     49%   81 30.2 30.17      
Sep 19 09:53 SE 11 10 Mostly Clear FEW060 76 59     56%   76 30.19 30.16      
Sep 19 08:53 SE 7 10 Cloudy OVC060 72 61     68%   72 30.19 30.16      
Sep 19 07:53 Calm 10 Cloudy BKN044 OVC055 67 60     79%     30.17 30.14      
Sep 19 06:53 Calm 10 Partly Cloudy SCT055 64 59     84%     30.15 30.12      
Sep 19 05:53 Calm 10 Clear CLR 64 58     81%     30.13 30.1      
Sep 19 04:53 Calm 10 Clear CLR 66 58     75%     30.13 30.09      
Sep 19 03:53 Calm 10 Clear CLR 67 58     73%     30.12 30.09      
Sep 19 02:53 Calm 10 Clear CLR 69 58     68%     30.12 30.09      
Sep 19 01:53 Calm 10 Clear CLR 71 58     63%   71 30.12 30.09      
Sep 19 00:53 ESE 3 10 Clear CLR 73 58     59%   73 30.11 30.08      
Sep 18 23:53 ESE 7 10 Clear CLR 73 61     66%   73 30.11 30.07      
Sep 18 22:53 ESE 10 10 Clear CLR 74 63     69%   74 30.1 30.07      
Sep 18 21:53 E 6 10 Clear CLR 76 65     69%   76 30.08 30.05      
Sep 18 20:53 E 7 10 Clear CLR 77 66     69%   78 30.06 30.03      
Sep 18 19:53 ESE 6 10 Clear CLR 80 67     64%   82 30.03 30      
May 15 05:53 Calm 10 Clear CLR 69 68     96%     30 29.97      
May 14 18:53 E 3 10 Clear CLR 89 64     44%   90 29.95 29.92      
May 14 11:53 NNE 3 10 Clear CLR 87 68     53%   91 30.05 30.02      
May 14 07:53 Calm 7 Clear CLR 64 63     96%     30.06 30.03      
May 14 00:53 Calm 10 Clear CLR 68 66     93%     30.07 30.03      
May 12 15:53 W 8 10 Mostly Clear FEW080 90 55     31%   88 30.1 30.07      
May 12 00:53 Calm 7 Clear CLR 67 66     97%     30.1 30.07      
May 11 23:53 Calm 10 Clear CLR 67 66     97%     30.09 30.06      
May 11 20:53 W 3 10 Clear CLR 76 66     71%   77 30.06 30.04      
May 11 09:53 3 10 Clear CLR 67 66     97%     30.15 30.12      
Notice The following observation data may not be complete
Jun 12 05:08   10 Mostly Cloudy SCT016 BKN030 BKN036          %              
Jun 11 02:53 Calm 10 Clear CLR 66 65     96%     30.12 30.09      
Jun 10 18:53 SSW 6 10 Clear CLR 85 62     46%   86 30.04 30.01      
Jun 10 12:53 3 10 Mostly Clear FEW055 85 64     50%   86 30.1 30.07      
Jun 10 00:53 Calm 10 Clear CLR 65 64     97%     30.01 29.98      
Jun 09 11:53 Calm 10 Clear CLR 78 63     60%   78 29.99 29.97      
Jun 08 01:53 N 5 10 Partly Cloudy SCT040 66 57     73%     29.88 29.85      
Jun 07 21:53 NNW 5 10 Clear CLR 70 57     63%     29.86 29.83      
Jun 07 13:53 NNE 9 10 Clear CLR 80 58     47%   80 29.83 29.8      
Notice The following observation data may not be complete
Jun 06 08:06   7 Light Rain SCT003 BKN095 OVC120          %         0    
Notice The following observation data may not be complete
Jun 06 06:08   10 Mostly Cloudy SCT028 SCT035 BKN044          %              
Jun 05 16:02 SSW 5 1.75 Thunderstorms and Rain and Fog/Mist SCT018 BKN041 OVC095 72 72     100%   74 29.82   0